When you browse on this site, cookies collect data to enhance your experience and personalize the content and advertising you see.
Visit our Privacy Policy to learn more. By continuing to use the site, you agree to this use of cookies and data.
  • In Hungary
  • List of Countries
  • For 7 days
  • Water Temperature
  • Weather Map
  • News
  • Weather Widgets
  • user-avatar
    Login

    Hourly Weather Lubianka

    Today, 23 August, Friday

    Time Temperature Precipitation Wind Pressure Humidity
    00:00 +13°C° 0 mm 3 mps 763 mmHg 84%
    01:00 +13°C° 0 mm 3 mps 763 mmHg 85%
    02:00 +13°C° 0 mm 3 mps 763 mmHg 83%
    03:00 +14°C° 0 mm 2 mps 763 mmHg 81%
    04:00 +14°C° 0 mm 2 mps 763 mmHg 79%
    05:00 +15°C° 0 mm 2 mps 763 mmHg 76%
    06:00 +16°C° 0 mm 2 mps 763 mmHg 73%
    07:00 +17°C° 0 mm 2 mps 763 mmHg 70%
    08:00 +19°C° 0 mm 2 mps 763 mmHg 65%
    09:00 +21°C° 0 mm 2 mps 764 mmHg 59%
    10:00 +23°C° 0 mm 2 mps 764 mmHg 54%
    11:00 +24°C° 0 mm 2 mps 763 mmHg 51%
    12:00 +25°C° 0 mm 2 mps 763 mmHg 48%
    13:00 +25°C° 0 mm 2 mps 763 mmHg 45%
    14:00 +25°C° 0 mm 2 mps 763 mmHg 46%
    15:00 +25°C° 0 mm 2 mps 762 mmHg 47%
    16:00 +25°C° 0 mm 1 mps 762 mmHg 47%
    17:00 +23°C° 0 mm 1 mps 762 mmHg 52%
    18:00 +22°C° 0 mm 1 mps 762 mmHg 57%
    19:00 +20°C° 0 mm 1 mps 762 mmHg 62%
    20:00 +18°C° 0 mm 2 mps 762 mmHg 63%
    21:00 +18°C° 0 mm 2 mps 762 mmHg 64%
    22:00 +17°C° 0 mm 2 mps 762 mmHg 65%
    23:00 +17°C° 0 mm 3 mps 762 mmHg 67%

    Tomorrow, 24 August, Saturday

    Time Temperature Precipitation Wind Pressure Humidity
    00:00 +17°C° 0 mm 3 mps 762 mmHg 68%
    01:00 +16°C° 0 mm 3 mps 762 mmHg 70%
    02:00 +16°C° 0 mm 2 mps 762 mmHg 73%
    03:00 +15°C° 0 mm 2 mps 762 mmHg 76%
    04:00 +15°C° 0 mm 2 mps 762 mmHg 79%
    05:00 +16°C° 0 mm 2 mps 762 mmHg 77%
    06:00 +17°C° 0 mm 2 mps 762 mmHg 76%
    07:00 +19°C° 0 mm 2 mps 762 mmHg 74%
    08:00 +20°C° 0 mm 2 mps 762 mmHg 68%
    09:00 +23°C° 0 mm 1 mps 762 mmHg 62%
    10:00 +24°C° 0 mm 1 mps 762 mmHg 57%
    11:00 +25°C° 0 mm 1 mps 762 mmHg 54%
    12:00 +26°C° 0 mm 1 mps 762 mmHg 51%
    13:00 +27°C° 0 mm 1 mps 761 mmHg 48%
    14:00 +27°C° 0 mm 1 mps 761 mmHg 49%
    15:00 +26°C° 0 mm 1 mps 761 mmHg 50%
    16:00 +26°C° 0 mm 2 mps 761 mmHg 51%
    17:00 +24°C° 0 mm 2 mps 761 mmHg 60%
    18:00 +21°C° 0 mm 2 mps 761 mmHg 68%
    19:00 +19°C° 0 mm 3 mps 761 mmHg 76%
    20:00 +18°C° 0 mm 3 mps 761 mmHg 79%
    21:00 +18°C° 0 mm 2 mps 761 mmHg 83%
    22:00 +17°C° 0 mm 2 mps 761 mmHg 86%
    23:00 +17°C° 0 mm 2 mps 761 mmHg 86%

    Day after tomorrow, 25 August, Sunday

    Time Temperature Precipitation Wind Pressure Humidity
    00:00 +16°C° 0 mm 2 mps 761 mmHg 86%
    01:00 +16°C° 0 mm 2 mps 761 mmHg 86%
    02:00 +16°C° 0 mm 2 mps 761 mmHg 85%
    03:00 +16°C° 0 mm 2 mps 761 mmHg 85%
    04:00 +16°C° 0 mm 2 mps 761 mmHg 84%
    05:00 +17°C° 0 mm 2 mps 761 mmHg 81%
    06:00 +18°C° 0 mm 2 mps 761 mmHg 77%
    07:00 +19°C° 0 mm 2 mps 761 mmHg 74%
    08:00 +21°C° 0 mm 2 mps 761 mmHg 68%
    09:00 +23°C° 0 mm 2 mps 761 mmHg 62%
    10:00 +25°C° 0 mm 3 mps 761 mmHg 57%
    11:00 +26°C° 0 mm 3 mps 761 mmHg 55%
    12:00 +26°C° 0 mm 3 mps 761 mmHg 53%
    13:00 +27°C° 0 mm 4 mps 760 mmHg 51%
    14:00 +27°C° 0 mm 4 mps 760 mmHg 52%
    15:00 +27°C° 0 mm 3 mps 760 mmHg 52%
    16:00 +27°C° 0 mm 3 mps 760 mmHg 53%
    17:00 +25°C° 0 mm 3 mps 760 mmHg 60%
    18:00 +22°C° 0 mm 3 mps 760 mmHg 66%
    19:00 +20°C° 0 mm 3 mps 760 mmHg 73%
    20:00 +19°C° 0 mm 3 mps 760 mmHg 74%
    21:00 +18°C° 0 mm 3 mps 760 mmHg 76%
    22:00 +18°C° 0 mm 2 mps 760 mmHg 78%
    23:00 +17°C° 0 mm 2 mps 760 mmHg 79%

    26 August, Monday

    Time Temperature Precipitation Wind Pressure Humidity
    00:00 +17°C° 0 mm 2 mps 760 mmHg 81%
    01:00 +16°C° 0 mm 2 mps 760 mmHg 82%
    02:00 +16°C° 0 mm 2 mps 760 mmHg 83%
    03:00 +14°C° 0 mm 3 mps 760 mmHg 83%
    04:00 +14°C° 0 mm 3 mps 760 mmHg 84%
    05:00 +16°C° 0 mm 3 mps 760 mmHg 80%
    06:00 +17°C° 0 mm 3 mps 760 mmHg 77%
    07:00 +19°C° 0 mm 3 mps 760 mmHg 73%
    08:00 +20°C° 0 mm 4 mps 760 mmHg 67%
    09:00 +22°C° 0 mm 4 mps 760 mmHg 61%
    10:00 +25°C° 0 mm 4 mps 760 mmHg 55%
    11:00 +26°C° 0 mm 4 mps 760 mmHg 52%
    12:00 +27°C° 0 mm 4 mps 760 mmHg 50%
    13:00 +27°C° 0 mm 4 mps 760 mmHg 47%
    14:00 +27°C° 0 mm 4 mps 759 mmHg 49%
    15:00 +27°C° 0 mm 4 mps 759 mmHg 51%
    16:00 +27°C° 0 mm 3 mps 759 mmHg 52%
    17:00 +25°C° 0 mm 3 mps 759 mmHg 59%
    18:00 +22°C° 0 mm 3 mps 759 mmHg 66%
    19:00 +21°C° 0 mm 2 mps 758 mmHg 73%
    20:00 +20°C° 0 mm 3 mps 759 mmHg 75%
    21:00 +19°C° 0 mm 3 mps 759 mmHg 77%
    22:00 +18°C° 0 mm 3 mps 759 mmHg 79%
    23:00 +18°C° 0 mm 3 mps 759 mmHg 82%

    27 August, Tuesday

    Time Temperature Precipitation Wind Pressure Humidity
    00:00 +18°C° 0 mm 3 mps 759 mmHg 85%
    01:00 +17°C° 0 mm 3 mps 759 mmHg 89%
    02:00 +17°C° 0 mm 3 mps 759 mmHg 89%
    03:00 +17°C° 0 mm 3 mps 759 mmHg 90%
    04:00 +17°C° 0 mm 3 mps 759 mmHg 91%
    05:00 +18°C° 0 mm 4 mps 759 mmHg 87%
    06:00 +19°C° 0 mm 4 mps 759 mmHg 83%
    07:00 +20°C° 0 mm 4 mps 759 mmHg 78%
    08:00 +22°C° 0 mm 5 mps 759 mmHg 71%
    09:00 +25°C° 0 mm 5 mps 759 mmHg 64%
    10:00 +27°C° 0 mm 5 mps 759 mmHg 57%
    11:00 +28°C° 0 mm 5 mps 758 mmHg 55%
    12:00 +28°C° 0 mm 5 mps 758 mmHg 52%
    13:00 +29°C° 0 mm 5 mps 758 mmHg 49%
    14:00 +29°C° 0 mm 5 mps 758 mmHg 51%
    15:00 +29°C° 0 mm 4 mps 757 mmHg 52%
    16:00 +29°C° 0 mm 4 mps 757 mmHg 54%
    17:00 +27°C° 0 mm 4 mps 757 mmHg 60%
    18:00 +25°C° 0 mm 4 mps 757 mmHg 66%
    19:00 +22°C° 0 mm 4 mps 757 mmHg 72%
    20:00 +22°C° 0 mm 4 mps 757 mmHg 72%
    21:00 +21°C° 0 mm 4 mps 757 mmHg 73%
    22:00 +21°C° 0 mm 4 mps 757 mmHg 73%
    23:00 +20°C° 0 mm 4 mps 757 mmHg 75%

    28 August, Wednesday

    Time Temperature Precipitation Wind Pressure Humidity
    00:00 +20°C° 0 mm 5 mps 757 mmHg 77%
    01:00 +20°C° 0 mm 5 mps 756 mmHg 79%
    02:00 +19°C° 0 mm 5 mps 756 mmHg 81%
    03:00 +19°C° 0 mm 4 mps 756 mmHg 83%
    04:00 +18°C° 0 mm 4 mps 756 mmHg 86%
    05:00 +19°C° 0 mm 5 mps 756 mmHg 83%
    06:00 +20°C° 0 mm 5 mps 756 mmHg 80%
    07:00 +21°C° 0 mm 5 mps 756 mmHg 77%
    08:00 +23°C° 0 mm 5 mps 755 mmHg 72%
    09:00 +25°C° 0 mm 5 mps 755 mmHg 66%
    10:00 +27°C° 0 mm 5 mps 755 mmHg 60%
    11:00 +28°C° 0 mm 5 mps 755 mmHg 57%
    12:00 +29°C° 0 mm 5 mps 755 mmHg 54%
    13:00 +32°C° 0 mm 5 mps 754 mmHg 50%
    14:00 +32°C° 0 mm 5 mps 754 mmHg 52%
    15:00 +32°C° 0 mm 4 mps 753 mmHg 53%
    16:00 +32°C° 0 mm 4 mps 753 mmHg 55%
    17:00 +29°C° 0 mm 4 mps 753 mmHg 59%
    18:00 +28°C° 0 mm 4 mps 753 mmHg 62%
    19:00 +26°C° 0 mm 4 mps 753 mmHg 66%
    20:00 +25°C° 1 mm 4 mps 753 mmHg 73%
    21:00 +22°C° 1 mm 4 mps 753 mmHg 80%
    22:00 +21°C° 1 mm 4 mps 753 mmHg 87%
    23:00 +20°C° 0.8 mm 3 mps 753 mmHg 90%
    Show more